[Date Prev][Date Next][Thread Prev][Thread Next] - [Date Index][Thread Index][Author Index]
2 Line ISS Keps 4-24
- Subject: [sarex] 2 Line ISS Keps 4-24
- From: "Dave Larsen PhD" <doc@xxxxxxxxxxx>
- Date: Thu, 24 Apr 2003 01:56:30 -0700
ISS
1 25544U 98067A 03114.33010692 .00022851 00000-0 29929-3 0 9221
2 25544 51.6328 290.8053 0006479 57.4103 16.6655 15.58469105252608
----
Via the sarex mailing list at AMSAT.ORG courtesy of AMSAT-NA.
To unsubscribe, send "unsubscribe sarex" to Majordomo@amsat.org
AMSAT Home